Home > Weather > Maribor > Past weeks

Flag for Slovenia Weather for the Past 2 Weeks in Maribor, Slovenia

Now
53 °F

Light rain. Overcast.


Feels Like: 52 °F
Forecast: 49 / 57 °F
Wind: 5 mph from North

Location: Maribor / Slivnica

Current Time: May 3, 2016 at 9:55:35 AM

Latest Report: May 3, 2016 at 8:00 AM


Visibility: 13 mi

Pressure: 29.95 "Hg

Humidity: 77%

Dew Point: 46 °F

Location of MariborLocation

Historic Weather in Maribor — Graph

°F

Maribor Temperature Yesterday

Maximum temperature yesterday: 54 °F (at 7:00 PM)
Minimum temperature yesterday: 52 °F (at 11:00 PM)
Average temperature yesterday: 53 °F

High & Low Weather Summary for the Past Weeks

 TemperatureHumidityPressure
High69 °F (Apr 22, 6:00 PM)97% (Apr 27, 7:00 PM)30.40 "Hg (Apr 27, 7:00 PM)
Low33 °F (Apr 27, 7:00 PM)31% (Apr 25, 3:00 PM)29.55 "Hg (Apr 23, 8:00 PM)
Average52 °F65%29.97 "Hg
* Reported Apr 18 9:00 AM — May 3 8:00 AM, Maribor, Weather by CustomWeather, © 2016

Note: Actual official high and low records may vary slightly from our data, if they occured in-between our weather recording intervals... More about our weather records

Advertising

Maribor Weather History for the Previous 24 Hours

Scroll right to see more
 ConditionsComfort  
Time TempWeatherWind HumidityBarometerVisibility
8:00 AM
Tue, May 3
53 °FLight rain. Overcast.5 mph77%29.95 "Hg12 mi
6:00 AM54 °FPartly sunny.6 mph72%29.93 "Hg19 mi
5:00 AM53 °FCool.7 mph74%29.93 "Hg22 mi
3:00 AM53 °FCool.6 mph80%29.94 "Hg11 mi
2:00 AM53 °FRain showers. Overcast.8 mph83%29.96 "Hg9 mi
1:00 AM53 °FRain showers. Overcast.7 mph85%29.96 "Hg12 mi
12:00 AM52 °FCool.5 mph83%29.98 "Hg22 mi
11:00 PM
Mon, May 2
52 °FCool.5 mph88%29.98 "Hg16 mi
10:00 PM53 °FOvercast.5 mph89%29.99 "Hg7 mi
9:00 PM53 °FCool.6 mph91%29.98 "Hg11 mi
8:00 PM53 °FLight rain. Overcast.5 mph92%29.97 "Hg2 mi
7:00 PM54 °FOvercast.5 mph84%29.96 "Hg7 mi
6:00 PM54 °FOvercast.5 mph87%29.97 "Hg7 mi
5:00 PM54 °FOvercast.5 mph89%29.99 "Hg7 mi
4:00 PM53 °FOvercast.6 mph90%30.00 "Hg7 mi
3:00 PM54 °FOvercast.5 mph91%30.01 "Hg7 mi
2:00 PM54 °FLight rain. Overcast.6 mph90%30.02 "Hg7 mi
1:00 PM53 °FLight rain. Overcast.6 mph91%30.03 "Hg6 mi
12:00 PM53 °FLight rain. Overcast.6 mph92%30.04 "Hg4 mi
11:00 AM53 °FLight rain. Overcast.6 mph92%30.03 "Hg4 mi
Weather by CustomWeather, © 2016

See weather overviewHow to use our weather pages